Location: D�pe
(52.6057°N, 8.1808°E)
Time: 02:03:58
(UTC+00:00)

Cosmos 1980 Rocket - Pass Details

Date: 29 October 2020
Orbit: 831 x 848 km, 71.0° (Epoch: 23 November)

Event Time Altitude Azimuth Distance (km) Brightness Sun altitude
Rises 19:14:29 0° 215° (SW) 3,379 5.6 -29.5°
Reaches altitude 10° 19:16:55 10° 217° (SW) 2,446 4.8 -29.8°
Enters shadow 19:21:20 55° 235° (SW) 996 2.6 -30.5°
